Weather History for Camdenton, MO

Change the Weather History Date:

Tuesday, April 23, 2013

  Actual Average (KAIZ) Record (KAIZ)
Temperature  
Mean Temperature 47 °F -  
Max Temperature 59 °F 66 °F 87 °F (2009)
Min Temperature 35 °F 46 °F 35 °F (2012)
Degree Days  
Heating Degree Days 18    
Moisture  
Dew Point 42 °F    
Average Humidity 89    
Maximum Humidity 100    
Minimum Humidity 51    
Precipitation  
Precipitation 0.70 in - - ()
Sea Level Pressure  
Sea Level Pressure 29.99 in    
Wind  
Wind Speed 9 mph (NW)    
Max Wind Speed 15 mph    
Max Gust Speed 21 mph    
Visibility 7 miles    
Events Rain , Thunderstorm    
Averages and records for this station are not official NWS values.
T = Trace of Precipitation, MM = Missing Value Source: NWS Daily Summary

Daily Weather History Graph

Daily Weather History Graph

Search for Another Location

Airport:

Trip Planner

Search our weather history database for the weather conditions in past years. The results will help you decide how hot, cold, wet, or windy it might be!

Date:

Astronomy

Apr. 23, 2013 Rise Set
Actual Time 6:24 AM CDT 7:54 PM CDT
Civil Twilight 5:56 AM CDT 8:22 PM CDT
Nautical Twilight 5:23 AM CDT 8:55 PM CDT
Astronomical Twilight 4:48 AM CDT 9:30 PM CDT
Moon 5:51 PM CDT (4/23) 4:50 AM CDT (4/23)
Length of Visible Light 14h 25m
Length of Day
13h 30m
Waxing Gibbous, 94% of the Moon is Illuminated
Apr 23
Waxing Gibbous
Apr 25
Full
May 2
Last Quarter
May 9
New
May 17
First Quarter

Hourly Weather History & Observations

Time (CDT) Temp. Windchill Dew Point Humidity Pressure Visibility Wind Dir Wind Speed Gust Speed Precip Events Conditions
12:15 AM 59.0 °F - 41.0 °F 51% 29.96 in 10.0 mi SE 12.7 mph 18.4 mph N/A   Clear
12:35 AM 59.0 °F - 41.0 °F 51% 29.97 in 10.0 mi SSE 10.4 mph - N/A   Clear
12:55 AM 59.0 °F - 41.0 °F 51% 29.95 in 10.0 mi SSE 9.2 mph - N/A   Clear
1:15 AM 59.0 °F - 41.0 °F 51% 29.95 in 10.0 mi SSE 9.2 mph - N/A   Clear
1:35 AM 57.2 °F - 41.0 °F 55% 29.96 in 10.0 mi SSE 8.1 mph - N/A   Clear
1:55 AM 59.0 °F - 41.0 °F 51% 29.97 in 10.0 mi South 6.9 mph - N/A   Scattered Clouds
2:15 AM 59.0 °F - 41.0 °F 51% 29.97 in 10.0 mi SSE 6.9 mph - N/A   Overcast
2:35 AM 59.0 °F - 41.0 °F 51% 29.96 in 10.0 mi SSE 8.1 mph - N/A   Overcast
2:55 AM 59.0 °F - 41.0 °F 51% 29.95 in 10.0 mi SSE 6.9 mph - N/A   Overcast
3:15 AM 59.0 °F - 41.0 °F 51% 29.95 in 10.0 mi SW 6.9 mph - N/A   Overcast
3:35 AM 59.0 °F - 42.8 °F 55% 29.95 in 10.0 mi West 4.6 mph - N/A   Overcast
3:55 AM 57.2 °F - 42.8 °F 59% 29.95 in 10.0 mi West 3.5 mph - N/A   Light Drizzle
4:15 AM 55.4 °F - 42.8 °F 63% 29.94 in 10.0 mi NW 3.5 mph - N/A Rain Rain
4:35 AM 55.4 °F - 44.6 °F 67% 29.92 in 10.0 mi NNW 4.6 mph - N/A   Mostly Cloudy
5:15 AM 55.4 °F - 42.8 °F 63% 29.93 in 10.0 mi North 3.5 mph - N/A   Overcast
5:35 AM 55.4 °F - 44.6 °F 67% 29.95 in 10.0 mi NW 4.6 mph - N/A Rain Light Rain
5:55 AM 53.6 °F - 46.4 °F 77% 29.95 in 7.0 mi NW 5.8 mph - 0.02 in Rain Rain
6:15 AM 51.8 °F - 50.0 °F 94% 29.96 in 7.0 mi NNW 5.8 mph - 0.04 in Rain Heavy Rain
6:35 AM 51.8 °F - 50.0 °F 94% 29.95 in 5.0 mi North 5.8 mph - 0.11 in Rain Rain
6:55 AM 50.0 °F - 50.0 °F 100% 29.95 in 5.0 mi NNW 9.2 mph - 0.17 in Rain Rain
7:15 AM 50.0 °F - 50.0 °F 100% 29.99 in 5.0 mi NNW 8.1 mph - 0.07 in Rain Heavy Rain
7:35 AM 50.0 °F - 50.0 °F 100% 30.00 in 5.0 mi North 8.1 mph - 0.19 in Rain Heavy Rain
7:55 AM 50.0 °F - 50.0 °F 100% 29.99 in 5.0 mi North 8.1 mph - 0.31 in Rain , Thunderstorm Heavy Thunderstorms and Rain
8:15 AM 50.0 °F - 50.0 °F 100% 30.01 in 7.0 mi NNW 8.1 mph - 0.05 in Rain , Thunderstorm Thunderstorms and Rain
8:35 AM 50.0 °F - 50.0 °F 100% 29.97 in 5.0 mi ENE 6.9 mph - 0.11 in Rain Rain
8:55 AM 50.0 °F - 50.0 °F 100% 29.91 in 5.0 mi East 15.0 mph - 0.18 in Rain Light Rain
9:15 AM 50.0 °F - 50.0 °F 100% 29.94 in 10.0 mi NNE 5.8 mph - N/A Thunderstorm Overcast
9:35 AM 50.0 °F - 50.0 °F 100% 29.94 in 10.0 mi East 5.8 mph - N/A   Overcast
9:55 AM 50.0 °F - 50.0 °F 100% 29.95 in 10.0 mi Calm Calm - N/A Thunderstorm Overcast
10:15 AM 50.0 °F - 50.0 °F 100% 29.95 in 7.0 mi NNW 3.5 mph - N/A Rain , Thunderstorm Light Thunderstorms and Rain
10:35 AM 50.0 °F - 50.0 °F 100% 29.95 in 7.0 mi NNW 4.6 mph - N/A Thunderstorm Overcast
10:55 AM 50.0 °F - 50.0 °F 100% 29.95 in 10.0 mi NW 9.2 mph - N/A Rain , Thunderstorm Light Thunderstorms and Rain
11:15 AM 46.4 °F 40.7 °F 46.4 °F 100% 29.97 in 0.8 mi NW 12.7 mph - N/A Thunderstorm Drizzle
11:35 AM 44.6 °F 38.4 °F 44.6 °F 100% 29.96 in 7.0 mi NW 12.7 mph 18.4 mph 0.01 in   Drizzle
11:55 AM 44.6 °F 39.2 °F 44.6 °F 100% 29.96 in 10.0 mi NNW 10.4 mph - 0.01 in   Drizzle
12:15 PM 42.8 °F 36.2 °F 42.8 °F 100% 29.97 in 7.0 mi NW 12.7 mph - N/A   Drizzle
12:35 PM 42.8 °F 36.2 °F 42.8 °F 100% 29.97 in 7.0 mi NW 12.7 mph 17.3 mph N/A   Drizzle
12:55 PM 42.8 °F 36.2 °F 42.8 °F 100% 29.97 in 7.0 mi NW 12.7 mph 18.4 mph N/A   Light Drizzle
1:15 PM 41.0 °F 33.9 °F 41.0 °F 100% 29.96 in 7.0 mi NNW 12.7 mph 17.3 mph N/A   Light Drizzle
1:35 PM 41.0 °F 35.2 °F 41.0 °F 100% 29.96 in 5.0 mi NW 9.2 mph - N/A   Drizzle
1:55 PM 41.0 °F 34.3 °F 41.0 °F 100% 29.97 in 7.0 mi NW 11.5 mph - N/A   Drizzle
2:15 PM 41.0 °F 35.2 °F 41.0 °F 100% 29.97 in 5.0 mi NNW 9.2 mph 17.3 mph N/A   Light Drizzle
2:35 PM 39.2 °F 31.2 °F 39.2 °F 100% 29.98 in 3.0 mi NW 13.8 mph 17.3 mph N/A   Drizzle
2:55 PM 37.4 °F 28.5 °F 37.4 °F 100% 29.99 in 3.0 mi NNW 15.0 mph 20.7 mph N/A   Drizzle
3:15 PM 37.4 °F 30.3 °F 37.4 °F 100% 29.99 in 5.0 mi NNW 10.4 mph - N/A   Drizzle
3:35 PM 37.4 °F 29.8 °F 37.4 °F 100% 29.98 in 4.0 mi NW 11.5 mph - N/A Rain Heavy Rain
3:55 PM 37.4 °F 29.8 °F 37.4 °F 100% 29.98 in 4.0 mi NW 11.5 mph 18.4 mph N/A   Drizzle
4:15 PM 37.4 °F 30.3 °F 37.4 °F 100% 29.97 in 3.0 mi NW 10.4 mph 16.1 mph N/A   Drizzle
4:35 PM 37.4 °F 29.3 °F 37.4 °F 100% 29.98 in 4.0 mi NW 12.7 mph 19.6 mph N/A   Drizzle
4:55 PM 37.4 °F 29.8 °F 37.4 °F 100% 29.99 in 4.0 mi NNW 11.5 mph - N/A Rain Heavy Rain
5:15 PM 37.4 °F 29.3 °F 37.4 °F 100% 30.00 in 4.0 mi NW 12.7 mph 20.7 mph 0.01 in Rain Light Rain
5:35 PM 35.6 °F 27.5 °F 35.6 °F 100% 29.99 in 4.0 mi NNW 11.5 mph - 0.01 in Rain Rain
5:55 PM 37.4 °F 29.8 °F 37.4 °F 100% 30.00 in 5.0 mi NNW 11.5 mph - 0.01 in Rain Rain
6:15 PM 37.4 °F 30.3 °F 37.4 °F 100% 30.01 in 5.0 mi NNW 10.4 mph 16.1 mph N/A Rain Rain
6:35 PM 37.4 °F 32.1 °F 37.4 °F 100% 30.01 in 5.0 mi NNW 6.9 mph - N/A   Heavy Drizzle
6:55 PM 37.4 °F 29.8 °F 37.4 °F 100% 30.02 in 4.0 mi NW 11.5 mph 16.1 mph N/A   Drizzle
7:15 PM 35.6 °F 28.0 °F 35.6 °F 100% 30.02 in 5.0 mi NW 10.4 mph 16.1 mph N/A   Drizzle
7:35 PM 35.6 °F 29.2 °F 35.6 °F 100% 30.02 in 4.0 mi NW 8.1 mph - N/A   Heavy Drizzle
7:55 PM 35.6 °F 27.5 °F 35.6 °F 100% 30.03 in 3.0 mi NW 11.5 mph - N/A   Heavy Drizzle
8:15 PM 35.6 °F 28.6 °F 35.6 °F 100% 30.04 in 3.0 mi NW 9.2 mph - N/A Rain Heavy Rain
8:35 PM 35.6 °F 29.2 °F 35.6 °F 100% 30.04 in 4.0 mi NW 8.1 mph - N/A Rain Heavy Rain
8:55 PM 35.6 °F 28.6 °F 35.6 °F 100% 30.05 in 4.0 mi NW 9.2 mph - N/A   Heavy Drizzle
9:15 PM 35.6 °F 27.1 °F 35.6 °F 100% 30.07 in 4.0 mi WNW 12.7 mph - N/A   Drizzle
9:35 PM 35.6 °F 29.2 °F 35.6 °F 100% 30.08 in 7.0 mi NW 8.1 mph - N/A   Drizzle
9:55 PM 35.6 °F 29.2 °F 35.6 °F 100% 30.09 in 5.0 mi NW 8.1 mph - N/A   Drizzle
10:15 PM 35.6 °F 28.6 °F 35.6 °F 100% 30.10 in 5.0 mi NW 9.2 mph - N/A   Drizzle
10:35 PM 35.6 °F 28.6 °F 35.6 °F 100% 30.10 in 5.0 mi WNW 9.2 mph - N/A   Light Drizzle
10:55 PM 35.6 °F 28.6 °F 35.6 °F 100% 30.09 in 5.0 mi NW 9.2 mph - N/A   Light Drizzle
11:15 PM 35.6 °F 28.6 °F 35.6 °F 100% 30.09 in 5.0 mi NW 9.2 mph - N/A   Overcast
11:35 PM 35.6 °F 27.5 °F 35.6 °F 100% 30.09 in 10.0 mi NW 11.5 mph - N/A   Overcast
11:55 PM 35.6 °F 28.6 °F 35.6 °F 100% 30.10 in 10.0 mi NW 9.2 mph - N/A   Overcast